When you browse on this site, cookies collect data to enhance your experience and personalize the content and advertising you see.
Visit our Privacy Policy to learn more. By continuing to use the site, you agree to this use of cookies and data.
  • In Austria
  • List of Countries
  • For 7 days
  • Water Temperature
  • Satellite Maps
  • Weather Map
  • News
  • Weather Widgets
  • user-avatar
    Login

    Hourly Weather Bragansa

    Today, 21 May, Tuesday

    Time Temperature Precipitation Wind Pressure Humidity
    00:00 +11°C° 0 mm 1 mps 712 mmHg 69%
    01:00 +10°C° 0 mm 1 mps 712 mmHg 69%
    02:00 +10°C° 0 mm 1 mps 712 mmHg 68%
    03:00 +9°C° 0 mm 1 mps 712 mmHg 68%
    04:00 +10°C° 0 mm 1 mps 712 mmHg 68%
    05:00 +10°C° 0 mm 1 mps 712 mmHg 69%
    06:00 +11°C° 0 mm 1 mps 712 mmHg 69%
    07:00 +13°C° 0 mm 1 mps 712 mmHg 63%
    08:00 +15°C° 0 mm 1 mps 713 mmHg 57%
    09:00 +19°C° 0 mm 1 mps 713 mmHg 51%
    10:00 +21°C° 0 mm 1 mps 713 mmHg 45%
    11:00 +23°C° 0 mm 1 mps 713 mmHg 39%
    12:00 +25°C° 0 mm 1 mps 713 mmHg 33%
    13:00 +25°C° 0 mm 1 mps 713 mmHg 32%
    14:00 +26°C° 0 mm 1 mps 713 mmHg 31%
    15:00 +26°C° 0 mm 1 mps 713 mmHg 29%
    16:00 +26°C° 0 mm 1 mps 713 mmHg 31%
    17:00 +25°C° 0 mm 1 mps 713 mmHg 32%
    18:00 +25°C° 0 mm 1 mps 713 mmHg 34%
    19:00 +23°C° 0 mm 1 mps 713 mmHg 37%
    20:00 +21°C° 0 mm 1 mps 713 mmHg 41%
    21:00 +19°C° 0 mm 1 mps 713 mmHg 45%
    22:00 +18°C° 0 mm 1 mps 713 mmHg 49%
    23:00 +16°C° 0 mm 1 mps 714 mmHg 53%

    Tomorrow, 22 May, Wednesday

    Time Temperature Precipitation Wind Pressure Humidity
    00:00 +15°C° 0 mm 1 mps 714 mmHg 57%
    01:00 +14°C° 0 mm 1 mps 714 mmHg 59%
    02:00 +14°C° 0 mm 1 mps 713 mmHg 62%
    03:00 +13°C° 0 mm 2 mps 713 mmHg 64%
    04:00 +13°C° 0 mm 2 mps 713 mmHg 67%
    05:00 +13°C° 0 mm 2 mps 713 mmHg 69%
    06:00 +13°C° 0 mm 2 mps 713 mmHg 72%
    07:00 +15°C° 0 mm 2 mps 714 mmHg 64%
    08:00 +18°C° 0 mm 2 mps 714 mmHg 56%
    09:00 +21°C° 0 mm 1 mps 714 mmHg 48%
    10:00 +23°C° 0 mm 1 mps 715 mmHg 42%
    11:00 +25°C° 0 mm 1 mps 715 mmHg 37%
    12:00 +27°C° 0 mm 1 mps 715 mmHg 31%
    13:00 +27°C° 0 mm 2 mps 715 mmHg 30%
    14:00 +27°C° 0 mm 2 mps 714 mmHg 29%
    15:00 +28°C° 0 mm 2 mps 714 mmHg 27%
    16:00 +27°C° 0 mm 3 mps 714 mmHg 29%
    17:00 +27°C° 0 mm 3 mps 714 mmHg 31%
    18:00 +27°C° 0 mm 3 mps 714 mmHg 32%
    19:00 +24°C° 0 mm 3 mps 714 mmHg 43%
    20:00 +21°C° 0 mm 3 mps 715 mmHg 53%
    21:00 +19°C° 0 mm 2 mps 715 mmHg 64%
    22:00 +18°C° 0 mm 2 mps 715 mmHg 69%
    23:00 +17°C° 0 mm 2 mps 715 mmHg 73%

    Day after tomorrow, 23 May, Thursday

    Time Temperature Precipitation Wind Pressure Humidity
    00:00 +16°C° 0 mm 1 mps 715 mmHg 78%
    01:00 +15°C° 0 mm 1 mps 715 mmHg 80%
    02:00 +15°C° 0 mm 1 mps 714 mmHg 82%
    03:00 +13°C° 0 mm 0 mps 714 mmHg 85%
    04:00 +13°C° 0 mm 0 mps 714 mmHg 84%
    05:00 +14°C° 0 mm 0 mps 714 mmHg 83%
    06:00 +15°C° 0 mm 1 mps 714 mmHg 82%
    07:00 +18°C° 0 mm 1 mps 715 mmHg 72%
    08:00 +19°C° 0 mm 2 mps 715 mmHg 63%
    09:00 +21°C° 0 mm 2 mps 715 mmHg 53%
    10:00 +22°C° 0 mm 3 mps 715 mmHg 45%
    11:00 +25°C° 0 mm 3 mps 715 mmHg 38%
    12:00 +26°C° 0 mm 4 mps 715 mmHg 30%
    13:00 +27°C° 0 mm 4 mps 715 mmHg 31%
    14:00 +27°C° 0 mm 5 mps 715 mmHg 33%
    15:00 +27°C° 0 mm 5 mps 715 mmHg 34%
    16:00 +26°C° 0 mm 5 mps 714 mmHg 37%
    17:00 +25°C° 0 mm 5 mps 714 mmHg 41%
    18:00 +23°C° 0 mm 5 mps 714 mmHg 44%
    19:00 +21°C° 0 mm 5 mps 714 mmHg 51%
    20:00 +19°C° 0 mm 4 mps 715 mmHg 57%
    21:00 +17°C° 0 mm 3 mps 715 mmHg 64%
    22:00 +16°C° 0 mm 2 mps 715 mmHg 67%
    23:00 +15°C° 0 mm 2 mps 715 mmHg 70%

    24 May, Friday

    Time Temperature Precipitation Wind Pressure Humidity
    00:00 +14°C° 0 mm 1 mps 715 mmHg 73%
    01:00 +14°C° 0 mm 1 mps 715 mmHg 73%
    02:00 +14°C° 0 mm 1 mps 715 mmHg 74%
    03:00 +14°C° 0 mm 1 mps 715 mmHg 74%
    04:00 +13°C° 0 mm 1 mps 714 mmHg 74%
    05:00 +12°C° 0 mm 1 mps 714 mmHg 75%
    06:00 +12°C° 0 mm 1 mps 714 mmHg 75%
    07:00 +14°C° 0 mm 2 mps 715 mmHg 63%
    08:00 +16°C° 0 mm 2 mps 715 mmHg 51%
    09:00 +18°C° 0 mm 3 mps 715 mmHg 38%
    10:00 +20°C° 0 mm 3 mps 715 mmHg 34%
    11:00 +22°C° 0 mm 3 mps 715 mmHg 30%
    12:00 +24°C° 0 mm 3 mps 715 mmHg 26%
    13:00 +25°C° 0 mm 3 mps 715 mmHg 26%
    14:00 +26°C° 0 mm 3 mps 714 mmHg 26%
    15:00 +26°C° 0 mm 3 mps 714 mmHg 25%
    16:00 +25°C° 0 mm 4 mps 714 mmHg 28%
    17:00 +25°C° 0 mm 5 mps 714 mmHg 30%
    18:00 +23°C° 0 mm 6 mps 714 mmHg 33%
    19:00 +21°C° 0 mm 5 mps 714 mmHg 38%
    20:00 +19°C° 0 mm 5 mps 715 mmHg 43%
    21:00 +16°C° 0 mm 5 mps 715 mmHg 49%
    22:00 +15°C° 0 mm 4 mps 715 mmHg 53%
    23:00 +14°C° 0 mm 4 mps 715 mmHg 58%

    25 May, Saturday

    Time Temperature Precipitation Wind Pressure Humidity
    00:00 +13°C° 0 mm 3 mps 715 mmHg 63%
    01:00 +12°C° 0 mm 3 mps 715 mmHg 66%
    02:00 +12°C° 0 mm 2 mps 715 mmHg 69%
    03:00 +10°C° 0 mm 2 mps 715 mmHg 72%
    04:00 +11°C° 0 mm 1 mps 715 mmHg 73%
    05:00 +11°C° 0 mm 1 mps 715 mmHg 73%
    06:00 +11°C° 0 mm 1 mps 715 mmHg 74%
    07:00 +13°C° 0 mm 1 mps 715 mmHg 65%
    08:00 +16°C° 0 mm 2 mps 716 mmHg 56%
    09:00 +18°C° 0 mm 2 mps 716 mmHg 47%
    10:00 +19°C° 0 mm 3 mps 716 mmHg 42%
    11:00 +21°C° 0 mm 3 mps 715 mmHg 38%
    12:00 +23°C° 0 mm 4 mps 715 mmHg 33%
    13:00 +22°C° 0 mm 4 mps 715 mmHg 35%
    14:00 +22°C° 0 mm 4 mps 715 mmHg 37%
    15:00 +21°C° 0 mm 4 mps 714 mmHg 39%
    16:00 +21°C° 0 mm 4 mps 714 mmHg 39%
    17:00 +21°C° 0 mm 5 mps 715 mmHg 39%
    18:00 +22°C° 0 mm 6 mps 715 mmHg 39%
    19:00 +20°C° 0 mm 5 mps 715 mmHg 43%
    20:00 +17°C° 0 mm 5 mps 716 mmHg 48%
    21:00 +15°C° 0 mm 4 mps 716 mmHg 52%
    22:00 +14°C° 0 mm 4 mps 716 mmHg 58%
    23:00 +13°C° 0 mm 3 mps 717 mmHg 63%

    26 May, Sunday

    Time Temperature Precipitation Wind Pressure Humidity
    00:00 +12°C° 0 mm 3 mps 717 mmHg 69%
    01:00 +11°C° 0 mm 3 mps 717 mmHg 73%
    02:00 +10°C° 0 mm 2 mps 717 mmHg 78%
    03:00 +10°C° 0 mm 1 mps 716 mmHg 82%
    04:00 +10°C° 0 mm 1 mps 717 mmHg 82%
    05:00 +10°C° 0 mm 1 mps 717 mmHg 81%
    06:00 +11°C° 0 mm 1 mps 717 mmHg 81%
    07:00 +13°C° 0 mm 2 mps 717 mmHg 69%
    08:00 +16°C° 0 mm 3 mps 717 mmHg 58%
    09:00 +18°C° 0 mm 3 mps 717 mmHg 47%
    10:00 +20°C° 0 mm 3 mps 717 mmHg 41%
    11:00 +22°C° 0 mm 3 mps 717 mmHg 35%
    12:00 +25°C° 0 mm 3 mps 717 mmHg 29%
    13:00 +26°C° 0 mm 3 mps 717 mmHg 27%
    14:00 +27°C° 0 mm 3 mps 716 mmHg 26%
    15:00 +28°C° 0 mm 2 mps 716 mmHg 24%
    16:00 +28°C° 0 mm 2 mps 716 mmHg 25%
    17:00 +27°C° 0 mm 2 mps 716 mmHg 27%
    18:00 +27°C° 0 mm 2 mps 715 mmHg 29%
    19:00 +24°C° 0 mm 2 mps 716 mmHg 37%
    20:00 +21°C° 0 mm 2 mps 716 mmHg 45%
    21:00 +19°C° 0 mm 2 mps 716 mmHg 54%
    22:00 +17°C° 0 mm 2 mps 716 mmHg 58%
    23:00 +16°C° 0 mm 2 mps 716 mmHg 62%
    Show more